GFSWCAN_850_rhum_252.txt.gz
RH
82 83 90 97 94 99 100 97 99 99 95 80 58 52 46 41 40 67 55 59 82 99 96 93 82 84 78 79 87 72 80 76 90 93 93 91 99 91 95 80 72 75 86 97 93 90 88 39 51 64 44 33 36 39
77 80 87 89 94 98 100 99 100 99 98 77 61 55 48 41 36 58 79 72 93 100 99 99 95 86 84 74 71 74 74 67 76 99 96 97 96 94 77 80 50 74 60 59 70 72 47 35 36 30 37 43 43 46
88 89 85 85 90 99 93 95 98 100 98 92 73 55 46 39 39 61 80 93 100 100 100 99 98 99 86 85 88 95 88 78 74 68 82 93 96 99 89 89 64 62 49 68 61 49 44 41 39 36 35 39 41 42
93 93 82 81 87 84 85 87 89 95 96 95 89 60 44 38 49 66 88 95 99 100 99 86 77 81 68 92 86 86 83 91 95 92 99 99 95 88 84 69 77 67 62 64 64 52 45 42 42 40 39 37 37 37
90 89 91 89 85 82 84 90 92 95 99 99 95 67 40 41 56 78 98 98 100 100 100 99 97 86 78 72 83 96 100 100 100 98 99 97 96 97 92 85 89 61 64 72 65 50 54 46 39 37 39 41 41 42
86 86 94 90 89 87 91 89 94 99 99 95 84 58 41 52 73 100 100 91 97 100 100 99 93 79 70 87 96 93 100 100 100 100 99 98 98 94 97 84 59 56 54 53 58 51 52 49 46 44 45 43 41 39
88 90 92 88 89 91 86 96 98 100 100 91 66 44 47 61 96 99 98 100 100 100 100 100 99 98 92 97 100 100 100 100 100 99 100 99 98 99 100 96 62 52 52 49 51 52 56 52 52 41 39 37 38 37
92 86 89 93 92 93 86 98 99 100 100 85 51 46 56 80 99 99 98 98 100 100 100 100 96 92 92 100 99 100 98 99 100 99 100 99 98 100 98 70 58 52 53 50 48 45 47 43 40 42 41 44 44 43
92 86 88 89 89 89 88 95 99 100 96 83 52 63 88 100 100 98 98 100 100 99 100 100 96 94 97 98 99 100 100 99 98 93 98 98 98 98 85 78 64 55 50 48 57 62 61 55 54 54 54 52 51 48
89 86 90 87 88 90 86 91 98 100 91 68 72 86 99 100 100 100 100 100 100 100 100 99 82 97 91 99 99 94 98 96 99 93 74 97 92 68 56 55 54 62 63 63 74 80 80 82 75 69 66 67 54 55
86 85 87 84 89 92 88 89 96 100 78 81 100 100 99 100 100 100 100 99 100 99 100 97 85 97 93 96 99 83 93 92 95 88 92 88 94 77 51 54 53 58 64 73 80 85 92 96 90 70 76 76 79 75
80 82 86 91 86 87 92 90 96 100 97 99 99 97 99 100 100 99 98 99 99 92 93 95 85 79 82 73 89 97 97 98 91 94 99 95 87 67 74 75 79 91 94 87 85 99 98 99 92 96 96 91 94 98
91 83 82 92 85 92 92 95 97 100 100 95 99 99 99 98 98 98 98 95 98 96 98 94 97 85 90 90 95 98 98 95 77 99 94 93 81 93 86 89 98 100 98 94 96 98 100 99 100 100 100 100 100 100
84 92 92 87 86 91 93 98 99 100 99 99 99 98 98 97 95 94 88 87 70 82 97 80 98 94 94 99 94 99 93 84 95 94 85 92 88 95 100 100 100 99 99 100 100 100 99 99 99 99 99 99 99 98
84 88 89 89 89 90 95 97 100 100 98 98 99 98 98 84 87 86 81 81 86 85 82 86 91 85 99 98 98 91 96 91 90 91 96 95 95 98 99 100 99 99 98 98 98 97 98 98 97 98 98 98 98 98
86 86 83 82 86 92 93 96 100 99 99 99 99 99 99 99 98 91 82 89 90 83 71 72 99 98 98 97 98 91 87 88 92 92 98 99 99 100 100 100 99 98 98 98 97 97 97 97 97 98 97 97 98 97
87 89 76 79 93 98 98 100 98 98 96 99 98 96 98 99 97 83 80 83 80 73 98 95 98 88 88 98 94 92 95 99 99 100 98 99 100 98 99 97 99 98 97 97 97 97 97 97 97 91 95 97 88 83
98 82 81 86 96 97 100 97 97 99 100 97 99 80 86 90 85 79 75 80 79 84 82 78 72 86 91 81 96 98 99 100 96 98 99 99 100 100 99 100 98 97 96 97 97 97 97 97 98 100 100 98 90 83
80 75 79 90 96 98 94 96 93 97 93 98 96 94 98 95 82 74 73 80 82 80 72 74 82 95 96 99 98 90 88 88 98 99 100 100 100 100 100 100 97 96 97 97 96 98 98 99 100 99 96 85 92 99
77 79 89 95 97 99 99 99 97 99 94 80 83 92 92 99 90 89 81 78 95 80 86 95 96 93 97 100 90 80 83 95 94 100 100 100 99 100 100 100 97 97 96 92 93 94 96 96 94 89 84 81 76 82
94 76 88 98 96 96 98 87 77 80 83 76 82 78 89 100 92 85 92 83 83 98 100 91 79 85 88 91 91 86 86 94 96 94 96 99 98 97 97 97 97 96 84 89 90 96 89 93 94 85 79 80 82 83
71 95 98 93 96 97 99 76 68 74 76 82 79 78 89 96 98 87 90 83 95 94 95 89 78 82 91 89 83 92 94 97 88 95 100 98 98 98 97 97 97 96 95 98 96 97 98 96 90 84 76 79 76 76
95 96 98 82 98 98 88 73 72 76 95 94 90 97 99 98 74 67 94 94 98 87 90 88 90 90 90 98 99 100 94 94 100 99 97 95 98 99 97 96 95 94 96 99 93 88 85 81 69 65 70 67 58 48
96 97 96 94 97 98 92 75 66 77 96 98 97 97 98 97 98 87 98 100 99 98 99 92 90 98 100 100 100 100 100 93 96 98 95 92 97 98 93 95 93 89 86 85 77 74 75 73 74 66 55 37 26 18
98 97 97 95 79 91 92 88 87 85 98 98 95 96 87 85 97 95 98 100 99 100 99 100 99 100 100 99 100 100 99 86 87 92 96 86 91 96 96 94 95 94 91 79 88 84 85 80 65 47 30 20 19 26
96 75 82 87 91 82 88 91 88 90 92 96 95 74 64 90 92 99 99 99 100 100 99 98 97 99 100 96 97 98 98 90 84 88 97 93 91 86 91 92 99 100 100 84 74 68 65 61 45 28 22 28 35 34
94 83 75 69 59 59 78 74 71 82 89 97 95 89 85 96 100 99 100 94 97 100 96 96 93 92 97 99 95 94 91 89 80 85 93 97 94 90 80 72 83 82 86 78 57 40 26 22 19 20 26 35 40 47
68 69 76 71 73 63 85 86 82 80 85 77 80 97 97 95 98 98 98 100 99 100 97 100 99 92 89 91 91 91 91 95 92 92 94 90 88 87 86 80 76 72 57 44 28 19 17 18 24 29 32 37 48 54
77 73 68 95 89 94 94 97 100 95 88 78 95 91 100 99 99 100 100 100 99 100 99 98 98 98 96 97 97 97 94 88 80 84 78 85 89 91 90 74 57 41 27 21 21 22 28 31 33 36 46 48 49 49
76 67 83 95 97 100 98 97 89 83 77 75 90 95 96 98 98 100 100 100 100 99 97 93 92 94 93 94 100 100 98 94 81 59 54 62 70 70 63 48 28 22 18 17 19 27 30 32 40 48 49 48 49 50
64 65 83 94 100 98 97 90 85 79 81 87 84 88 93 97 98 97 97 98 98 100 100 100 100 91 81 86 91 90 92 92 85 74 67 65 65 63 50 28 22 17 19 25 28 29 34 43 47 49 49 50 52 54
68 73 95 98 97 96 85 87 93 92 92 90 96 92 89 87 97 96 97 97 97 100 100 100 100 100 100 100 99 87 77 71 78 80 72 71 67 54 29 22 18 22 29 30 32 39 47 47 48 49 49 51 54 55
77 77 76 90 98 90 80 74 85 94 92 94 94 85 88 90 96 96 98 98 98 100 100 100 100 100 100 100 96 83 84 86 85 79 75 64 38 25 19 18 24 30 31 33 42 46 50 49 48 50 51 52 54 54

GFSWCAN_850_rhum_255.txt.gz
RH
83 72 81 97 99 98 96 94 99 99 99 97 89 76 64 60 54 72 79 79 94 97 90 84 76 83 79 76 93 72 82 81 92 96 96 93 99 87 82 61 66 78 95 94 85 91 88 40 44 60 42 30 31 36
69 73 76 86 97 98 99 99 99 100 99 98 92 88 70 60 56 57 61 62 78 100 87 67 79 86 74 73 72 82 81 72 80 97 98 94 98 96 88 90 61 85 66 68 76 70 49 40 34 35 39 42 41 45
84 93 86 85 86 89 97 99 100 100 99 99 97 76 62 57 54 56 50 55 86 100 98 100 97 76 89 89 89 97 93 83 74 67 91 94 96 96 94 80 73 66 51 72 65 49 44 39 38 36 37 40 39 39
93 85 75 72 76 89 96 97 97 98 100 98 96 91 76 59 53 53 54 53 87 94 99 83 71 75 69 78 95 96 82 94 93 95 99 99 96 81 91 73 81 64 62 70 69 57 51 50 46 45 44 43 43 40
92 90 89 85 79 84 81 92 90 92 95 97 98 95 94 76 54 51 58 64 77 97 98 99 99 83 78 86 86 95 100 100 100 99 99 97 97 88 84 79 84 62 70 80 75 51 57 52 48 49 49 49 49 46
93 81 84 88 88 82 86 84 90 91 88 96 95 100 99 93 56 71 98 48 57 72 99 98 88 98 82 76 74 92 100 100 100 100 98 98 97 99 99 95 57 54 54 56 64 63 67 59 55 56 56 51 50 54
94 90 89 90 94 91 90 79 89 94 96 99 98 99 95 85 66 95 84 98 100 100 99 99 99 99 97 100 99 100 100 100 100 98 98 96 99 100 99 94 59 54 56 55 53 57 65 60 60 50 52 52 51 51
94 92 88 92 95 93 94 90 85 93 98 98 100 98 91 58 66 81 49 43 60 99 100 100 99 94 96 98 96 100 100 100 100 99 100 99 99 100 98 73 62 58 56 56 54 52 56 57 61 62 62 62 62 61
89 92 91 88 92 94 92 93 90 92 95 94 98 88 76 71 100 76 50 80 96 99 100 100 92 98 100 100 100 100 100 99 100 99 98 97 98 97 81 78 72 64 68 69 76 73 70 76 78 72 70 66 72 68
87 90 92 87 88 88 89 92 90 91 92 98 96 81 99 98 100 100 100 100 100 100 100 99 88 96 91 100 100 96 100 97 99 96 91 99 83 64 61 60 67 81 87 91 99 95 98 97 98 100 100 100 99 91
88 89 88 90 88 93 93 94 91 94 98 95 98 97 99 99 100 100 100 99 99 99 100 90 86 95 93 95 98 88 95 94 97 86 91 91 96 82 75 79 82 87 95 99 100 100 99 100 100 100 99 100 100 100
88 90 89 86 80 91 91 88 93 96 98 98 98 92 93 98 99 99 98 99 99 91 98 98 94 76 86 78 91 98 90 97 92 93 98 98 92 92 89 86 86 99 99 100 99 99 99 99 100 100 100 99 100 100
87 85 84 81 92 92 88 94 96 97 98 89 98 99 100 96 98 97 97 97 90 93 97 97 98 87 89 89 93 97 100 95 90 99 94 93 87 91 99 98 98 98 99 100 99 100 99 99 99 98 98 98 99 98
90 87 87 84 85 92 89 95 96 94 96 98 99 97 98 97 96 95 88 88 71 79 97 84 100 92 98 99 98 97 92 89 97 98 92 89 88 94 96 98 100 98 100 100 99 98 97 98 98 97 97 97 97 97
92 84 78 76 92 95 87 96 95 97 98 98 99 97 98 81 83 86 83 86 90 87 87 88 92 90 99 98 94 93 98 98 94 90 94 91 96 97 99 96 95 100 98 96 97 97 97 97 96 96 97 97 97 97
88 88 89 85 86 91 92 98 94 98 92 99 99 99 97 99 96 88 92 90 95 88 75 74 97 98 98 96 98 93 92 92 85 98 97 98 100 99 98 97 100 98 97 98 96 97 97 97 97 98 98 96 96 94
90 89 74 86 89 86 86 96 97 98 99 99 91 95 100 99 99 89 84 87 88 76 98 95 99 86 98 98 96 90 93 96 98 99 100 100 99 99 100 100 98 98 99 98 96 97 96 97 88 74 82 93 84 85
86 83 82 82 92 85 95 96 96 100 93 98 96 95 100 86 98 100 85 86 98 100 99 96 77 93 96 87 95 98 100 100 96 99 100 99 99 99 99 100 97 98 98 95 93 96 94 87 92 100 100 100 92 97
86 80 82 83 94 95 97 98 87 97 96 95 96 94 100 92 83 84 95 96 95 100 91 74 82 92 90 98 97 95 98 92 99 100 100 100 99 100 100 100 97 97 96 96 88 86 93 95 100 98 98 98 96 99
73 71 74 93 93 96 98 100 75 75 98 84 93 96 98 97 94 99 100 100 100 99 96 94 95 94 94 98 91 80 81 85 95 100 100 100 100 96 98 97 97 97 91 82 84 89 88 85 86 84 84 84 82 83
88 78 93 95 97 95 96 99 88 86 95 86 93 95 100 100 100 100 100 100 99 98 98 92 86 80 88 92 80 81 86 93 94 98 100 100 99 97 97 97 97 97 85 88 85 87 81 79 79 74 72 73 75 73
91 91 94 95 94 96 99 96 93 87 86 90 90 88 99 99 99 99 95 89 92 92 89 82 78 80 86 87 86 82 86 96 95 99 99 97 98 97 97 97 96 83 85 89 86 83 83 82 80 73 62 63 61 53
72 79 94 96 97 98 94 98 85 83 96 96 92 97 98 99 97 88 97 94 97 92 87 84 81 81 87 100 91 93 98 97 96 98 99 97 97 97 97 97 94 89 89 91 86 82 78 75 69 65 63 51 35 24
85 96 97 96 96 95 98 97 83 94 99 98 96 98 99 99 98 91 97 96 99 95 86 84 94 98 100 100 100 100 100 96 99 100 98 93 96 100 97 95 95 88 82 82 76 66 67 68 65 52 37 24 18 20
96 89 97 97 99 97 96 92 92 89 99 98 96 98 98 99 97 96 94 92 100 97 84 87 100 99 99 99 100 100 100 97 91 94 99 89 83 94 96 92 90 86 80 67 62 65 66 62 50 32 20 19 23 27
96 96 93 88 94 95 86 92 91 96 96 96 94 94 85 92 94 98 90 98 100 98 89 96 98 98 100 99 99 100 99 97 84 82 91 93 87 81 85 83 79 76 79 76 63 60 53 51 35 20 19 29 33 42
96 92 78 74 72 72 86 80 74 86 94 96 97 90 88 98 100 96 100 100 98 99 91 86 94 96 93 97 96 94 93 90 88 78 86 92 90 86 84 81 62 64 69 75 67 54 38 31 21 21 27 35 48 51
85 69 84 84 87 72 86 89 84 81 92 82 81 98 96 90 97 100 100 98 96 99 100 97 87 87 88 84 85 87 92 96 90 91 95 97 96 88 76 73 73 68 69 62 45 29 22 18 21 28 32 44 44 46
86 78 71 97 91 94 88 89 97 98 95 76 94 99 100 100 99 100 100 93 100 95 95 100 99 99 97 96 94 94 88 86 86 89 91 80 76 79 81 78 64 51 42 29 20 19 21 28 30 34 44 45 42 43
77 68 88 99 99 100 99 97 91 91 84 81 88 96 96 99 100 100 100 99 98 95 98 100 94 97 94 95 96 97 96 92 86 64 53 56 63 65 66 63 48 31 24 18 14 18 26 29 33 44 46 44 43 44
67 69 88 95 98 97 93 83 80 80 83 87 84 88 96 98 98 99 99 98 99 99 98 99 100 99 91 92 88 90 94 92 87 76 68 64 61 64 60 47 28 20 16 16 22 26 28 34 43 45 45 44 45 47
68 83 94 97 97 98 97 91 90 94 93 91 93 95 94 88 96 97 98 98 98 98 98 97 96 95 93 90 87 87 82 76 70 67 69 69 65 64 55 31 21 17 20 27 29 31 39 44 45 46 45 46 46 47
82 85 85 94 97 91 84 78 91 95 95 96 95 86 86 88 94 94 99 98 97 94 96 99 99 91 90 95 88 86 80 76 77 78 73 71 68 58 32 21 17 20 28 30 33 42 46 49 48 47 48 48 48 48

GFSWCAN_850_rhum_258.txt.gz
RH
82 73 68 97 95 100 88 77 76 96 100 99 98 89 67 65 67 60 55 58 72 85 71 80 71 72 76 74 94 92 82 80 96 98 97 95 96 85 80 65 63 82 98 95 91 95 87 42 48 61 48 34 34 36
75 72 68 84 98 100 98 92 90 100 100 99 99 98 82 74 73 64 69 68 92 95 83 80 61 68 70 64 68 77 68 79 78 97 98 96 98 98 90 98 59 85 68 81 80 76 53 46 46 43 42 44 42 45
83 88 83 85 92 98 98 100 99 100 99 99 99 98 98 97 87 63 63 66 96 96 74 77 48 34 52 56 66 84 91 83 70 77 98 98 98 93 98 91 81 66 57 74 69 50 47 43 43 44 44 46 46 46
70 82 82 76 76 89 95 98 100 100 100 99 100 99 98 93 81 63 64 78 78 93 91 71 58 80 71 72 82 84 82 86 82 92 99 98 98 79 93 75 80 65 60 65 67 58 52 52 51 52 50 51 53 55
94 94 72 65 63 71 80 96 97 98 99 99 100 99 98 96 92 70 66 71 68 73 91 90 55 34 72 88 82 87 100 100 100 99 99 98 92 87 88 92 84 64 64 73 72 50 55 55 52 56 60 64 66 63
96 73 64 75 87 75 78 75 92 95 96 98 100 95 97 99 99 94 67 48 42 55 94 97 80 81 68 76 81 84 96 100 100 99 98 99 87 95 99 95 52 51 50 53 58 55 58 59 58 58 66 64 61 61
96 85 70 80 87 88 79 78 86 87 90 95 91 93 96 99 99 84 49 100 99 99 98 99 98 97 99 100 100 100 100 100 100 98 99 98 100 100 99 90 55 55 56 58 60 60 65 62 64 66 67 65 65 60
92 95 84 90 88 82 84 83 78 86 85 87 95 93 94 96 99 96 64 61 71 89 78 99 98 95 100 100 99 100 100 100 100 99 100 100 99 99 98 71 69 64 66 67 72 79 80 80 75 73 73 83 89 91
91 95 93 90 89 92 90 94 82 89 89 85 94 96 95 99 98 79 55 47 54 72 99 99 98 98 100 100 99 100 100 98 99 99 99 99 98 97 87 80 71 77 97 100 97 85 80 94 98 100 100 99 97 98
76 92 94 89 93 93 92 89 89 89 90 96 97 98 92 84 74 65 98 99 100 100 99 99 89 98 98 99 100 99 100 99 98 96 96 99 94 67 59 73 92 89 87 89 98 94 97 98 100 99 100 99 100 100
68 77 86 93 90 93 96 94 94 90 88 93 97 96 89 98 99 97 100 99 99 99 99 99 88 97 95 95 98 84 96 96 98 88 90 89 98 84 94 87 85 90 98 100 99 99 100 100 100 99 98 99 99 99
77 76 89 90 92 86 88 92 89 92 97 97 98 95 89 91 99 99 98 99 99 93 99 99 96 79 89 80 94 99 92 96 88 90 98 97 93 97 93 95 93 99 99 99 99 100 100 100 100 99 98 97 97 98
84 87 89 92 91 84 96 88 95 89 93 97 100 99 100 99 99 98 96 98 96 97 97 98 98 92 97 86 92 98 99 94 87 98 86 92 85 87 94 94 95 98 98 99 100 100 99 97 97 96 96 97 97 97
81 91 88 84 82 95 93 91 83 89 96 99 98 98 97 97 96 92 90 87 67 74 96 92 100 96 100 100 99 98 93 91 97 98 94 88 87 92 94 96 96 99 100 100 100 98 97 96 96 96 96 97 97 96
79 86 89 88 88 84 92 95 87 94 97 98 99 91 97 82 83 79 82 82 79 85 94 90 96 93 99 98 94 93 99 90 95 90 94 90 94 95 97 92 99 100 99 98 95 96 96 96 96 96 96 97 96 97
77 84 90 78 80 83 93 94 87 94 96 99 100 97 89 97 88 93 87 93 90 95 85 79 99 98 98 94 97 92 95 94 85 97 98 97 97 97 95 99 100 99 96 94 95 100 94 93 95 96 98 96 96 97
86 83 67 76 78 88 83 92 92 95 91 93 87 98 92 98 98 87 81 84 91 91 99 99 98 87 96 99 95 91 94 93 100 99 99 98 99 100 100 100 100 94 93 95 95 93 82 82 76 73 87 93 88 91
97 74 72 89 86 88 95 97 95 97 95 86 91 94 92 98 97 96 94 88 99 100 94 93 79 99 97 88 94 97 100 95 97 98 100 100 100 99 99 100 97 94 95 97 82 72 66 62 63 86 91 86 81 82
83 72 84 89 86 92 88 95 84 97 82 84 91 84 99 99 92 97 100 99 100 98 100 94 97 97 93 95 93 98 97 99 98 97 99 99 99 100 99 100 98 97 97 93 82 82 80 76 80 83 81 80 80 85
82 79 75 87 86 89 92 96 83 68 95 88 91 83 80 87 94 98 99 100 100 99 99 98 96 88 83 88 84 81 89 94 98 100 100 100 100 98 99 97 97 97 92 87 88 85 83 83 86 86 83 79 71 69
80 75 72 87 97 93 95 94 90 58 49 77 92 98 90 100 100 100 100 100 99 98 98 89 84 84 91 87 79 82 81 84 98 99 98 100 99 97 97 97 97 96 82 84 78 79 74 71 73 73 69 62 60 52
86 82 94 97 96 96 98 82 96 98 88 93 100 99 92 99 99 100 100 98 96 93 82 83 82 82 83 84 80 79 85 96 100 99 99 98 99 99 97 97 96 92 84 80 75 72 75 78 74 64 58 51 42 26
84 96 93 96 88 96 80 82 99 99 98 98 100 98 98 99 97 99 98 91 94 88 78 78 76 77 81 94 87 88 90 91 98 98 98 98 97 97 97 96 94 83 83 82 80 76 66 64 63 51 36 25 17 18
89 83 92 96 96 94 85 100 96 99 99 99 97 97 99 99 96 92 92 94 100 96 91 86 92 92 98 100 96 94 97 99 96 99 100 96 96 97 98 98 96 92 81 79 74 62 63 62 47 29 20 17 22 28
82 81 94 96 95 100 98 96 97 94 98 98 97 98 99 99 97 98 92 91 100 100 99 98 100 99 99 100 96 99 98 98 97 95 100 97 91 94 99 98 93 84 81 68 59 62 61 51 34 20 19 26 28 39
96 82 96 90 95 92 91 96 96 99 97 98 94 99 97 95 96 96 91 91 99 100 99 99 98 88 90 91 96 98 99 100 99 91 93 94 90 84 84 88 86 85 75 76 62 59 51 43 26 18 24 30 41 40
96 95 97 96 85 87 95 90 79 90 97 97 98 92 89 93 97 93 96 100 99 94 78 75 80 94 96 97 98 100 100 99 97 85 82 92 95 94 89 85 84 68 68 74 67 54 38 28 18 20 27 39 43 43
89 97 96 91 88 74 93 92 86 84 93 84 78 93 78 82 90 99 98 99 100 94 87 91 92 88 96 96 94 93 96 98 96 90 90 93 93 91 93 81 74 71 68 63 49 31 24 20 21 27 36 42 40 42
97 93 84 100 94 93 91 94 96 100 98 71 96 100 98 99 98 100 100 99 100 100 100 100 100 99 98 96 96 98 94 90 86 88 89 88 88 82 72 74 69 62 57 40 29 23 22 26 30 34 44 43 41 41
86 78 93 100 98 96 98 98 93 95 88 86 88 95 96 98 100 100 99 100 99 95 96 98 94 98 95 95 96 99 98 92 91 89 78 74 68 63 66 67 62 48 34 27 18 15 22 28 32 43 45 43 42 44
72 77 92 96 98 97 94 89 86 84 86 90 88 89 99 97 98 99 99 99 97 95 96 99 100 100 92 92 88 86 89 95 88 79 72 64 64 64 66 61 47 30 22 18 17 23 26 30 42 44 44 43 44 46
76 89 96 99 98 97 97 87 87 91 92 90 96 96 96 94 95 97 98 98 99 98 95 99 98 98 100 95 88 88 85 84 76 68 62 60 64 67 64 51 30 20 17 19 26 29 32 41 44 46 44 45 45 45
85 88 90 96 97 97 87 80 91 95 95 96 95 89 88 87 93 96 96 97 96 94 94 97 97 96 95 97 94 92 85 82 76 71 75 74 72 67 60 37 22 16 19 27 29 33 41 45 46 45 46 46 46 46

GFSWCAN_850_rhum_261.txt.gz
RH
79 90 76 91 88 75 76 74 82 83 90 99 99 88 62 63 59 57 56 56 62 52 53 58 61 65 73 66 75 85 79 86 94 95 92 87 89 68 68 52 54 68 87 85 80 92 83 38 45 51 39 42 44 46
75 67 63 73 94 99 88 81 76 80 90 95 98 96 78 69 65 66 64 59 58 67 72 67 64 63 66 62 61 65 71 84 82 87 92 84 84 84 74 81 56 70 59 61 66 55 46 51 50 48 49 51 46 46
77 69 65 68 97 100 91 88 82 86 100 100 100 99 89 71 74 74 65 61 72 99 82 77 53 42 53 54 50 69 69 66 68 87 96 96 94 87 89 78 65 59 58 74 65 49 46 45 42 44 45 49 52 54
85 81 79 75 81 97 99 100 94 95 99 99 99 99 98 90 88 80 66 62 60 70 94 60 51 49 63 62 53 61 63 82 79 79 98 96 91 76 74 62 65 54 56 55 60 54 51 50 49 51 51 55 58 60
88 78 70 65 65 90 89 98 100 100 99 99 99 99 99 98 96 84 71 63 57 54 79 76 53 37 54 54 71 74 75 84 97 99 100 95 91 83 78 78 79 57 56 68 68 48 52 51 52 55 59 64 66 68
94 84 63 62 64 69 76 96 97 99 99 99 99 99 98 99 92 89 89 74 60 54 73 94 60 42 53 49 53 82 90 100 99 99 98 97 79 83 95 86 48 48 50 54 57 54 56 60 64 69 72 80 84 85
94 74 60 79 94 78 75 84 96 96 98 98 98 99 99 99 94 82 79 98 82 88 84 95 96 81 99 97 95 100 100 99 99 99 100 98 98 97 100 84 51 52 58 65 67 73 75 74 86 94 96 94 94 97
88 88 66 73 82 72 69 71 79 87 96 97 97 98 98 97 100 99 92 100 98 96 92 99 91 94 98 100 98 100 100 100 100 99 100 98 96 99 97 63 65 72 77 71 78 82 84 92 94 93 97 97 96 95
79 96 76 80 92 91 82 73 73 82 78 83 91 96 97 90 98 87 68 83 90 84 91 98 93 95 100 100 100 100 100 100 99 99 99 99 98 95 74 77 82 98 100 100 100 98 94 96 96 98 100 100 100 100
84 96 84 71 76 81 76 81 82 87 93 90 84 97 96 72 71 77 73 95 100 93 80 90 92 91 95 100 99 99 100 99 96 90 98 100 81 72 78 86 93 91 92 99 99 96 98 99 100 100 100 100 100 100
74 91 97 81 88 76 89 86 80 89 95 95 95 89 80 98 88 90 100 99 99 99 98 77 55 78 95 92 95 97 94 90 96 79 88 76 77 79 98 93 89 90 99 100 100 100 100 100 100 100 100 100 100 99
72 74 89 91 95 92 94 75 96 96 96 99 99 96 93 95 99 99 97 97 99 88 99 96 96 85 90 84 92 98 91 92 85 86 95 88 79 96 94 94 93 98 99 100 99 100 99 98 100 99 97 95 97 98
71 68 84 93 95 93 89 92 91 86 93 99 99 100 99 99 97 96 95 95 91 94 98 99 99 95 98 99 99 96 95 91 85 94 78 79 84 85 92 98 98 98 100 100 100 95 93 95 92 91 96 97 97 95
90 71 70 87 92 89 89 92 78 89 96 97 98 96 93 96 90 82 82 81 73 80 97 93 100 99 100 100 99 96 83 90 94 94 89 80 82 90 92 98 99 100 98 97 93 92 93 94 95 93 95 96 95 95
81 79 83 91 88 89 92 89 77 84 96 98 99 89 96 80 81 82 82 79 81 80 95 94 99 98 99 98 96 92 96 88 86 86 80 88 90 93 100 100 100 100 94 94 91 91 90 90 90 92 94 96 97 97
80 88 89 81 90 89 74 87 95 90 96 95 100 94 87 93 81 92 87 85 86 92 97 95 99 98 97 91 93 86 88 84 80 84 98 96 97 98 100 100 97 91 94 93 93 94 95 92 93 91 86 86 86 85
93 92 60 69 66 87 96 86 86 90 89 98 86 84 88 96 94 87 87 84 80 100 100 99 98 85 90 94 93 83 90 80 98 100 96 96 97 100 100 99 93 92 92 93 94 83 75 77 83 75 72 83 82 82
94 72 63 68 85 92 98 91 76 96 98 92 88 76 90 92 92 94 94 95 99 100 100 96 95 96 95 88 88 88 100 100 94 96 98 98 99 100 100 100 95 94 94 81 69 64 64 69 71 78 81 85 82 77
77 70 82 83 84 80 76 75 82 93 88 78 65 52 91 95 95 99 97 100 100 100 98 99 98 92 87 82 86 98 98 96 99 99 97 97 99 99 100 100 98 97 87 76 74 68 72 76 79 82 84 80 68 61
75 76 82 78 81 79 68 81 85 58 90 83 76 68 54 52 61 80 96 100 100 100 100 98 98 90 79 78 75 76 90 99 94 99 100 99 99 99 100 97 96 97 95 80 76 78 81 83 85 82 70 62 48 33
78 76 78 93 97 74 79 94 96 68 41 50 85 94 84 89 85 86 94 100 100 99 98 97 90 95 96 82 77 79 84 85 91 92 95 100 97 98 97 97 97 97 83 80 75 78 78 72 71 69 59 40 24 16
80 75 95 98 88 86 80 64 82 96 94 84 63 76 92 98 98 91 97 100 99 94 90 78 80 77 76 77 77 80 79 93 98 96 97 93 97 99 98 96 96 91 84 78 72 69 70 68 63 57 41 20 16 24
77 95 94 91 89 95 72 58 94 96 92 97 91 94 97 96 88 94 99 98 89 84 74 77 81 83 86 86 86 89 92 97 99 99 100 97 95 95 96 97 97 86 80 76 74 74 61 59 55 35 19 17 24 34
95 94 94 96 89 94 73 97 99 94 100 98 95 84 97 94 100 98 94 93 92 84 80 82 81 79 88 97 95 96 96 98 99 100 98 95 98 100 100 98 96 94 85 74 75 63 60 51 32 19 18 24 34 38
92 94 84 97 90 98 99 97 93 90 97 98 90 97 96 99 96 98 90 87 95 100 92 84 82 84 97 99 100 94 99 99 98 99 100 98 93 97 98 97 97 91 82 76 62 61 56 38 22 18 26 33 39 36
98 71 94 90 93 98 88 93 96 92 93 97 95 98 98 94 98 94 86 80 99 100 99 98 98 100 100 97 93 95 98 99 98 94 98 100 97 87 87 90 89 83 74 68 60 58 49 32 18 21 30 41 40 36
100 92 76 72 93 71 79 61 74 96 96 96 92 99 88 96 96 84 90 93 99 100 97 99 98 97 90 94 94 99 97 99 98 93 88 91 94 92 90 84 81 80 64 64 67 57 39 25 17 25 34 40 39 40
83 85 98 91 97 95 89 96 93 95 94 88 80 84 82 82 79 99 99 92 99 99 100 100 94 87 88 94 100 100 100 100 100 94 91 93 92 90 89 91 87 72 66 65 59 44 35 21 19 27 39 39 36 39
98 94 100 96 96 97 96 93 94 98 100 72 90 96 98 97 100 100 96 97 100 100 100 100 96 97 100 100 100 100 96 90 86 88 88 87 87 88 90 77 71 71 69 54 42 34 26 23 28 34 43 40 40 40
88 91 96 95 96 97 98 95 94 98 92 86 88 93 97 99 100 99 100 100 100 99 100 100 96 100 98 100 99 99 99 95 94 87 84 82 85 81 66 67 70 66 59 44 29 18 17 26 30 41 44 42 42 43
88 96 96 95 97 97 97 94 91 88 87 91 89 91 99 98 100 100 100 100 100 100 97 98 99 100 96 96 93 91 94 95 96 90 72 73 70 63 63 64 61 48 34 25 19 17 22 28 37 44 43 43 44 45
96 94 97 100 97 97 97 88 88 91 90 91 96 97 95 94 94 98 97 98 99 98 95 100 99 99 99 98 96 95 87 88 80 67 62 58 59 63 64 60 45 30 20 16 19 26 30 34 43 45 44 45 46 45
93 94 95 99 100 99 93 83 93 96 96 99 96 90 90 85 91 91 93 94 96 96 91 94 98 98 98 99 98 91 90 87 71 62 61 63 66 67 65 52 32 21 17 21 27 30 34 45 47 46 47 47 47 47